Location: Patricia
(50.7000°N, 111.6833°W)
Time: 11:20:02
(UTC+00:00)

N. Korean satellite - Visible Passes

Search period start: 05 December 2021 00:00
Search period end: 15 December 2021 00:00
Orbit: 446 x 495 km, 97.3° (Epoch: 05 December)

Date Brightness Start Highest point End Pass type
(mag) Time Alt. Az. Time Alt. Az. Time Alt. Az.
05 Dec 9.7 00:53:34 10° SW 00:55:44 15° W 00:57:53 10° NW visible
05 Dec 8.5 12:12:12 10° NE 12:15:09 27° E 12:18:05 10° SSE visible
05 Dec 7.5 13:45:30 10° NNW 13:48:17 24° WNW 13:51:01 10° WSW visible
06 Dec 8.7 00:23:52 10° SSW 00:27:00 30° W 00:30:08 10° NNW visible
06 Dec 9.6 11:44:38 10° ENE 11:46:24 13° E 11:48:10 10° ESE visible
06 Dec 6.5 13:16:36 10° N 13:19:54 48° WNW 13:23:09 10° SSW visible
07 Dec 6.5 12:47:58 10° NNE 12:51:23 75° ESE 12:54:45 10° S visible
07 Dec 8.4 14:23:12 10° NW 14:24:03 11° WNW 14:24:54 10° WNW visible
08 Dec 9.9 01:01:48 10° WSW 01:03:23 13° W 01:04:59 10° WNW visible
08 Dec 8.1 12:19:39 10° NNE 12:22:46 33° E 12:25:51 10° SSE visible
08 Dec 7.7 13:53:15 10° NNW 13:55:47 20° WNW 13:58:19 10° WSW visible
09 Dec 9.1 00:31:42 10° SSW 00:34:37 25° W 00:37:31 10° NW visible
09 Dec 9.4 11:51:47 10° NE 11:54:01 16° E 11:56:13 10° SE visible
09 Dec 6.8 13:24:12 10° N 13:27:24 39° WNW 13:30:35 10° SW visible
10 Dec 7.5 00:02:32 10° S 00:05:57 52° W 00:09:20 10° NNW visible
10 Dec 7.5 12:55:29 10° NNE 13:00:22 32° SSW 13:02:17 10° SSW visible
11 Dec 10.2 01:10:30 10° W 01:11:00 10° W 01:11:29 10° W visible
11 Dec 8.6 12:27:03 10° NNE 12:32:11 21° SSE 12:33:31 10° S visible
11 Dec 8.3 14:00:57 10° NNW 14:06:18 - WSW 14:01:58 14° NW visible
12 Dec 9.4 00:39:30 10° SW 00:42:10 20° W 00:44:49 10° NW visible
12 Dec 9.5 12:03:50 11° SE 12:03:50 11° SE 12:04:06 10° SE visible
12 Dec 8.4 13:31:46 10° N 13:37:55 10° SW 13:32:39 16° NNW visible
13 Dec 7.9 00:10:08 10° S 00:13:26 42° W 00:16:44 10° NNW visible
13 Dec 8.8 13:02:57 10° N 13:09:27 12° SSW 13:09:44 10° SSW visible
14 Dec 9.2 12:40:55 11° S 12:40:55 11° S 12:41:04 10° S visible
14 Dec8.914:15:00WSW14:15:00WSW14:08:18NNWvisible
